Wind_Speed
20 20 19 19 18 18 18 18 17 17 17 17 17 17 16 17 17 17 18 17 17 17 17 17 17 18 18 18 17 18 18 18 18 17 17 18 18 17
22 21 20 20 19 20 20 19 19 19 18 18 18 18 18 18 18 18 19 19 19 19 19 19 19 19 19 19 19 19 20 20 19 19 19 18 18 18
23 22 22 22 21 21 21 21 20 20 19 18 19 19 20 20 20 20 20 20 20 20 20 20 20 20 20 21 21 21 20 20 20 20 20 20 19 19
25 25 24 24 23 23 23 23 22 21 21 20 20 21 21 21 21 21 22 22 22 21 21 22 22 22 22 22 22 21 21 21 21 20 20 20 20 20
27 27 27 26 25 25 24 24 24 23 23 22 22 22 22 22 22 22 23 23 22 22 22 22 22 23 23 23 22 22 22 22 22 21 21 21 21 21
28 29 28 27 27 27 26 25 25 24 24 24 24 23 23 23 23 23 23 23 23 23 23 23 23 23 23 23 23 23 22 23 23 22 22 21 21 21
29 29 28 28 27 27 27 27 26 26 25 25 25 24 24 24 23 23 23 23 23 23 24 24 24 24 24 24 24 23 23 23 23 23 23 23 22 22
30 29 29 28 28 28 28 28 28 27 27 27 26 25 25 25 24 24 24 24 24 24 24 24 24 24 24 24 24 24 24 24 24 24 24 24 23 22
30 29 29 28 29 29 29 29 29 28 28 27 26 26 25 25 25 24 25 25 25 25 25 25 25 25 25 26 26 25 25 25 25 25 25 25 24 24
30 29 29 30 30 29 29 29 29 29 28 28 28 27 27 26 25 25 26 26 25 25 26 25 26 26 26 26 27 27 26 26 26 25 25 25 25 24
30 30 31 30 30 30 29 29 29 29 29 29 29 28 28 28 28 27 26 25 25 25 25 26 26 26 26 26 27 27 27 27 27 26 26 26 26 25
31 31 31 31 30 30 30 30 30 29 29 29 29 29 29 29 29 28 27 27 26 26 26 26 26 26 26 27 27 27 27 27 26 26 26 26 26 26
32 32 32 32 31 30 31 31 30 30 30 30 30 30 30 29 29 28 28 28 27 27 26 26 26 26 26 26 26 27 26 26 26 26 26 25 25 25
33 33 33 33 32 31 31 31 31 31 31 31 31 30 30 29 29 28 27 28 28 27 26 26 26 26 26 26 26 27 27 27 26 26 26 26 26 25
34 33 33 33 33 32 31 31 32 32 31 31 30 31 30 30 30 29 29 29 29 28 28 28 27 27 27 27 27 27 27 27 27 27 27 27 27 27
32 33 33 32 32 32 32 32 32 31 31 31 31 31 32 32 31 30 30 29 30 29 29 28 28 27 27 28 28 27 27 27 28 28 28 28 28 28
32 32 32 31 31 31 32 31 31 30 31 31 32 32 32 33 33 33 32 31 30 31 31 31 30 29 29 29 29 28 28 28 28 29 29 29 29 28
32 32 32 31 31 31 32 31 31 31 31 32 31 32 32 33 33 33 33 32 32 32 32 32 32 31 30 30 29 29 28 28 28 29 29 29 29 29
32 32 32 32 32 31 31 31 32 32 32 32 31 32 33 33 33 32 32 33 33 33 33 33 33 32 31 30 29 29 29 29 29 30 30 29 29 28
32 31 31 31 31 31 31 31 32 32 32 32 32 32 33 33 33 32 32 33 34 34 33 33 33 33 32 30 30 30 30 30 30 30 30 29 29 28
30 30 30 31 31 31 32 32 32 32 32 32 32 32 32 33 33 32 32 32 32 33 34 34 33 33 32 31 31 31 31 30 30 29 29 29 28 28
30 30 30 31 31 31 31 32 32 31 31 31 31 32 32 32 32 32 32 32 32 33 34 34 33 33 32 32 31 31 31 31 31 30 30 29 28 29
30 30 30 30 30 30 31 32 32 32 32 31 32 32 32 33 33 32 32 32 33 33 33 33 33 33 33 33 32 32 31 32 32 31 30 30 29 29
Wind_Direction
281 281 282 281 279 278 278 278 277 277 277 275 274 272 269 268 267 266 265 266 267 268 270 271 272 273 274 275 277 277 278 279 278 278 279 279 278 275
279 279 279 279 278 278 277 276 276 276 275 274 273 273 271 272 271 269 267 268 268 268 268 270 271 274 274 275 276 277 278 280 279 278 278 280 279 276
277 277 278 278 276 276 276 276 275 274 273 273 272 273 272 272 272 271 270 270 270 269 268 269 270 273 276 276 275 278 278 279 279 278 278 278 277 276
275 275 275 276 275 274 274 274 273 272 272 273 274 275 274 271 271 271 272 271 270 270 269 270 270 272 274 276 277 277 278 278 277 276 276 275 274 274
274 273 273 273 274 273 272 271 270 270 271 272 274 275 276 273 272 272 272 271 270 269 269 270 272 273 275 275 277 276 276 276 275 274 274 276 275 273
274 272 272 272 272 271 269 268 269 269 270 271 272 273 274 275 273 272 272 270 269 269 270 271 272 272 273 275 276 276 275 275 275 274 273 273 275 274
273 272 271 271 269 268 268 267 267 267 269 271 271 272 272 273 274 273 273 271 269 270 271 272 272 272 273 275 276 276 275 275 274 273 273 273 275 273
272 270 271 271 268 266 265 266 266 266 269 270 270 272 272 271 272 273 273 272 270 269 270 271 272 273 273 275 276 276 275 275 274 273 273 272 274 272
271 269 269 269 268 266 265 265 265 266 268 269 268 269 270 269 270 270 272 272 270 270 270 270 270 271 272 274 275 276 275 275 274 274 274 273 274 273
271 270 269 267 267 266 265 264 265 266 267 267 268 268 269 269 269 270 272 270 269 269 270 269 269 271 273 274 275 275 274 274 274 274 274 274 274 274
271 270 269 267 267 266 264 265 266 267 267 266 265 266 266 266 268 269 271 270 269 270 270 270 271 272 273 274 274 274 274 274 274 274 273 274 274 274
271 270 269 268 267 266 265 265 266 266 266 266 265 264 265 266 267 268 269 269 270 271 271 272 271 272 272 273 274 273 274 273 273 273 274 274 274 274
270 269 268 267 267 266 266 266 266 265 264 265 264 264 265 265 265 267 268 268 270 271 271 272 273 273 273 273 272 271 272 272 271 272 274 274 275 275
269 268 268 267 267 266 266 266 265 265 264 265 264 263 264 265 266 266 267 267 268 269 271 273 273 273 273 273 273 273 272 271 270 270 272 273 274 274
267 267 267 266 265 266 265 264 264 264 265 264 264 263 263 264 266 266 266 267 267 267 271 273 273 273 272 273 274 274 272 270 268 269 270 271 272 273
266 265 264 263 263 264 264 265 264 264 264 264 264 263 262 263 265 266 266 266 267 266 268 269 271 272 274 274 273 272 271 270 269 270 270 271 272 272
265 263 262 262 263 263 263 265 264 263 264 264 264 264 265 264 264 264 265 266 266 266 267 267 268 270 273 274 272 271 270 270 269 270 271 271 273 272
264 264 263 264 264 265 265 265 265 264 264 264 264 265 266 267 266 265 265 265 267 266 267 267 268 268 269 271 271 271 271 270 270 272 272 272 273 272
264 264 264 264 264 265 265 266 266 265 264 265 264 264 265 266 266 267 266 265 265 266 267 267 268 268 268 268 269 270 271 271 271 271 271 271 272 272
265 264 264 265 266 265 265 267 267 266 264 264 264 263 264 265 266 268 268 266 265 265 266 267 267 268 269 267 268 268 269 269 270 271 270 270 272 272
266 266 266 267 267 266 266 266 266 266 266 264 265 264 265 266 267 268 268 268 267 266 267 267 267 266 266 265 266 267 268 269 270 271 271 270 270 270
265 266 267 268 268 266 264 264 264 266 267 266 266 266 266 266 266 266 267 267 267 268 268 267 267 266 265 265 265 266 268 269 270 270 270 270 269 268
267 267 267 268 268 266 264 263 264 267 267 266 267 266 265 266 266 265 266 266 267 267 267 267 267 267 267 266 265 266 267 269 270 270 269 269 269 268
Height
5800 5799 5798 5797 5797 5796 5795 5795 5795 5794 5794 5794 5794 5793 5793 5793 5793 5794 5794 5795 5795 5795 5795 5795 5795 5795 5795 5796 5795 5795 5795 5794 5794 5794 5794 5793 5793 5792
5794 5793 5793 5792 5791 5791 5790 5790 5790 5790 5790 5789 5789 5789 5789 5789 5789 5789 5789 5790 5790 5790 5790 5790 5790 5790 5790 5790 5790 5790 5790 5789 5789 5789 5788 5788 5788 5787
5788 5787 5787 5786 5786 5785 5785 5784 5784 5784 5785 5785 5784 5784 5784 5784 5784 5784 5784 5784 5784 5784 5785 5785 5785 5785 5785 5785 5785 5784 5784 5784 5783 5783 5783 5783 5782 5782
5780 5780 5780 5779 5779 5779 5779 5779 5779 5779 5779 5779 5779 5779 5778 5778 5778 5778 5778 5778 5778 5778 5778 5778 5778 5779 5779 5778 5778 5778 5778 5778 5777 5777 5777 5777 5777 5776
5772 5771 5771 5771 5772 5772 5772 5772 5772 5772 5773 5773 5773 5773 5773 5772 5772 5772 5772 5772 5772 5772 5772 5772 5772 5772 5772 5772 5772 5772 5772 5771 5771 5771 5771 5771 5770 5770
5763 5763 5763 5763 5763 5763 5764 5765 5765 5765 5765 5766 5766 5766 5766 5766 5765 5765 5765 5765 5765 5765 5765 5765 5765 5765 5765 5765 5765 5765 5765 5765 5765 5764 5764 5764 5764 5764
5754 5754 5754 5754 5754 5755 5756 5756 5757 5757 5758 5758 5759 5759 5759 5759 5759 5758 5758 5757 5757 5757 5758 5758 5758 5758 5758 5758 5758 5758 5758 5757 5757 5757 5757 5757 5757 5757
5746 5745 5745 5745 5746 5746 5747 5748 5749 5749 5750 5750 5751 5751 5751 5751 5751 5751 5751 5751 5751 5751 5751 5751 5751 5751 5751 5751 5751 5751 5750 5750 5750 5750 5750 5750 5750 5750
5736 5736 5736 5736 5737 5737 5738 5739 5740 5740 5741 5742 5742 5743 5743 5744 5744 5743 5743 5743 5743 5743 5743 5744 5743 5743 5743 5743 5743 5743 5743 5742 5742 5742 5742 5742 5742 5742
5727 5727 5727 5727 5728 5728 5729 5730 5731 5732 5732 5733 5734 5735 5735 5735 5736 5736 5735 5735 5735 5735 5735 5736 5736 5735 5735 5735 5735 5735 5734 5734 5734 5734 5734 5734 5734 5734
5717 5718 5718 5718 5719 5719 5720 5721 5722 5723 5723 5724 5725 5726 5726 5727 5727 5727 5727 5727 5727 5728 5727 5727 5728 5727 5727 5727 5726 5726 5726 5726 5726 5726 5726 5726 5726 5726
5708 5708 5708 5709 5709 5710 5711 5712 5713 5714 5715 5715 5716 5717 5717 5718 5718 5719 5719 5719 5719 5720 5720 5719 5719 5719 5719 5719 5718 5718 5717 5717 5717 5718 5718 5717 5717 5718
5698 5698 5699 5699 5700 5700 5701 5702 5704 5704 5705 5706 5706 5707 5708 5709 5710 5710 5711 5711 5711 5711 5711 5711 5711 5710 5711 5711 5710 5709 5709 5709 5709 5709 5709 5709 5709 5709
5687 5688 5688 5689 5689 5690 5691 5692 5693 5694 5695 5696 5697 5698 5699 5700 5701 5701 5702 5702 5703 5703 5702 5702 5702 5702 5702 5702 5702 5702 5701 5701 5701 5701 5701 5701 5701 5701
5676 5677 5677 5678 5679 5680 5681 5682 5683 5684 5685 5686 5688 5689 5690 5691 5691 5692 5692 5693 5693 5694 5694 5694 5694 5694 5693 5693 5693 5693 5693 5693 5693 5693 5693 5693 5693 5692
5665 5666 5666 5667 5668 5669 5671 5671 5673 5674 5675 5677 5677 5678 5680 5681 5681 5682 5683 5683 5684 5684 5684 5684 5684 5685 5685 5684 5684 5684 5684 5684 5685 5685 5685 5684 5683 5683
5654 5655 5655 5657 5658 5659 5660 5661 5662 5664 5665 5667 5667 5668 5669 5670 5671 5672 5673 5674 5674 5675 5675 5675 5675 5675 5676 5675 5675 5675 5675 5675 5675 5675 5676 5675 5675 5674
5644 5645 5646 5647 5648 5649 5650 5651 5652 5654 5655 5656 5657 5658 5659 5660 5661 5661 5662 5663 5664 5665 5665 5665 5665 5666 5666 5666 5666 5666 5666 5666 5666 5666 5666 5667 5666 5666
5633 5635 5636 5637 5638 5639 5640 5641 5642 5643 5644 5645 5646 5647 5648 5649 5650 5651 5651 5652 5654 5654 5655 5655 5655 5656 5656 5657 5657 5656 5657 5657 5656 5657 5657 5657 5657 5657
5623 5624 5625 5627 5628 5629 5630 5631 5632 5633 5633 5634 5635 5636 5637 5638 5639 5640 5641 5642 5643 5643 5644 5644 5645 5645 5646 5647 5647 5647 5647 5647 5647 5647 5647 5647 5647 5647
5613 5614 5615 5616 5617 5618 5619 5620 5621 5622 5623 5624 5625 5626 5627 5628 5629 5629 5630 5631 5632 5632 5633 5633 5634 5634 5635 5636 5637 5637 5637 5637 5637 5637 5637 5637 5638 5638
5603 5605 5606 5606 5607 5608 5609 5610 5611 5611 5612 5613 5614 5615 5616 5617 5618 5618 5619 5620 5621 5622 5622 5623 5623 5623 5624 5625 5626 5627 5627 5627 5627 5627 5627 5628 5628 5629
5594 5595 5596 5597 5597 5598 5599 5600 5600 5601 5602 5603 5604 5604 5605 5606 5607 5607 5608 5609 5610 5611 5612 5612 5613 5613 5614 5615 5616 5616 5617 5618 5618 5618 5618 5618 5618 5619